Home   Weather   Noumea   Past weeks

Flag for New Caledonia Past Weather in Noumea, New Caledonia, New Caledonia — Yesterday and Last 2 Weeks

Now
61 °F

Cool.


Feels Like: 61 °F
Forecast: 62 / 80 °F
Wind: 2 mph from Southeast

Location: La Tontouta Nlle-Caledonie

Current Time: Sep 30, 2016 at 2:30:00 AM

Latest Report: Sep 30, 2016 at 2:00 AM


Visibility: N/A

Pressure: 29.92 "Hg

Humidity: 83%

Dew Point: 55 °F

Location of NoumeaLocation

Past Weather in Noumea — Graph

°F

Noumea Temperature Yesterday

Maximum temperature yesterday: 81 °F (at 2:00 PM)
Minimum temperature yesterday: 57 °F (at 4:30 AM)
Average temperature yesterday: 68 °F

High & Low Weather Summary for the Past Weeks

 TemperatureHumidityPressure
High86 °F (Sep 15, 1:30 PM)100% (Sep 24, 5:00 AM)30.18 "Hg (Sep 24, 5:00 AM)
Low57 °F (Sep 17, 4:00 AM)37% (Sep 16, 2:30 PM)29.80 "Hg (Sep 22, 2:30 PM)
Average71 °F70%29.94 "Hg
* Reported Sep 15 1:00 AM — Sep 30 1:00 AM, Noumea, Weather by CustomWeather, © 2016

Note: Actual official high and low records may vary slightly from our data, if they occured in-between our weather recording intervals... More about our weather records

Advertising

Noumea Weather History for the Previous 24 Hours

Scroll right to see more
 ConditionsComfort  
Time TempWeatherWind HumidityBarometerVisibility
1:00 AM
Fri, Sep 30
61 °FCool.No wind83%29.92 "HgN/A
12:30 AM61 °FCool.3 mph88%29.92 "HgN/A
12:00 AM61 °FCool.3 mph83%29.95 "HgN/A
11:30 PM
Thu, Sep 29
63 °FMild.No wind77%29.95 "HgN/A
11:00 PM63 °FMild.No wind83%29.95 "HgN/A
10:30 PM63 °FMild.2 mph77%29.95 "HgN/A
10:00 PM64 °FPassing clouds.No wind78%29.95 "HgN/A
9:30 PM64 °FPassing clouds.2 mph78%29.95 "HgN/A
9:00 PM64 °FPassing clouds.No wind78%29.95 "HgN/A
8:30 PM66 °FPassing clouds.3 mph73%29.95 "HgN/A
8:00 PM66 °FPassing clouds.1 mph73%29.92 "HgN/A
7:30 PM66 °FPassing clouds.No wind73%29.92 "HgN/A
7:00 PM68 °FPassing clouds.No wind69%29.89 "HgN/A
6:30 PM68 °FMild.2 mph69%29.89 "HgN/A
6:00 PM70 °FMild.3 mph64%29.89 "HgN/A
5:30 PM72 °FMild.7 mph61%29.89 "HgN/A
5:00 PM73 °FScattered clouds.10 mph57%29.89 "HgN/A
4:30 PM73 °FPartly sunny.13 mph57%29.86 "HgN/A
4:00 PM77 °FPartly sunny.14 mph54%29.86 "HgN/A
3:30 PM79 °FPartly sunny.14 mph51%29.86 "HgN/A
3:00 PM81 °FPartly sunny.14 mph51%29.83 "HgN/A
2:30 PM81 °FScattered clouds.12 mph48%29.83 "HgN/A
2:00 PM81 °FPassing clouds.12 mph48%29.86 "HgN/A
1:30 PM79 °FPartly sunny.12 mph51%29.86 "HgN/A
1:00 PM79 °FScattered clouds.13 mph51%29.86 "HgN/A
12:30 PM79 °FPassing clouds.10 mph51%29.86 "HgN/A
12:00 PM79 °FPassing clouds.8 mph51%29.89 "HgN/A
11:30 AM75 °FPartly sunny.10 mph54%29.89 "HgN/A
11:00 AM77 °FWarm.9 mph54%29.92 "HgN/A
10:30 AM77 °FBroken clouds.10 mph57%29.92 "HgN/A
10:00 AM75 °FPartly sunny.5 mph61%29.92 "HgN/A
9:30 AM73 °FMostly cloudy.6 mph65%29.92 "HgN/A
9:00 AM73 °FOvercast.7 mph61%29.92 "HgN/A
8:30 AM72 °FMostly cloudy.3 mph65%29.92 "HgN/A
8:00 AM72 °FBroken clouds.2 mph65%29.92 "HgN/A
7:30 AM66 °FMild.3 mph73%29.89 "HgN/A
7:00 AM63 °FPartly sunny.2 mph83%29.89 "HgN/A
6:30 AM59 °FPassing clouds.No wind94%29.89 "HgN/A
6:00 AM57 °FCool.3 mph88%29.86 "HgN/A
5:30 AM59 °FCool.No wind88%29.86 "HgN/A
5:00 AM57 °FCool.3 mph94%29.83 "HgN/A
4:30 AM57 °FPassing clouds.3 mph88%29.83 "HgN/A
4:00 AM59 °FPassing clouds.6 mph88%29.83 "HgN/A
3:30 AM61 °FPassing clouds.No wind83%29.83 "HgN/A
3:00 AM61 °FPassing clouds.2 mph88%29.83 "HgN/A
2:30 AM61 °FCool.3 mph88%29.83 "HgN/A
2:00 AM59 °FCool.2 mph88%29.83 "HgN/A
Weather by CustomWeather, © 2016

See weather overviewHow to use our weather pages